Regional Weather Roundup
Issued by NWS Raleigh/Durham, NC

Current Version | Previous Version | Text Only | Print | Product List | Glossary On
Versions: 1 2 3 4 5 6 7 8 9 10 11 12 13 14 15 16 17 18 19 20 21 22 23 24 25 26 27 28 29 30 31 32 33 34 35 36 37 38 39 40 41 42 43 44 45 46 47 48 49 50
351
ASUS42 KRAH 250910
RWRRAH
NORTH CAROLINA WEATHER ROUNDUP
NATIONAL WEATHER SERVICE RALEIGH NC
500 AM EDT MON JUL 25 2016

NOTE: "FAIR" INDICATES FEW OR NO CLOUDS BELOW 12,000 FEET WITH NO
SIGNIFICANT WEATHER AND/OR OBSTRUCTIONS TO VISIBILITY.

NCZ001-053-055-056-065-067-251000-
WESTERN NORTH CAROLINA

CITY           SKY/WX    TMP DP  RH WIND       PRES   REMARKS
ASHEVILLE      CLEAR     69  66  90 N3        30.14R
JEFFERSON      CLEAR     67  66  94 CALM      30.18F
MORGANTON      CLEAR     68  68 100 CALM      30.12R
HICKORY        CLEAR     74  73  97 CALM      30.06R
RUTHERFORDTON    N/A     71  71 100 CALM      30.07R FOG
MOUNT AIRY     CLEAR     73  70  92 CALM      30.08S
BOONE          CLEAR     63  63 100 CALM      30.20S FOG
$$

NCZ021-022-025-041-071-084-088-251000-
CENTRAL NORTH CAROLINA

CITY           SKY/WX    TMP DP  RH WIND       PRES   REMARKS
CHARLOTTE      CLEAR     78  70  76 S5        30.04R
GREENSBORO     PTCLDY    77  73  87 SW7       30.04R
WINSTON-SALEM  CLEAR     77  71  82 S3        30.06R
RALEIGH-DURHAM CLEAR     77  74  90 SW6       30.04R
FORT BRAGG     CLEAR     79  75  88 S3        30.03R
FAYETTEVILLE   CLEAR     78  75  90 S6        30.03R
BURLINGTON     MOCLDY    77  74  90 S3        30.04R
LAURINBURG     MOCLDY    78  76  93 SW6       30.04R
$$

NCZ011-015-027-028-043-044-047-080-103-251000-
NORTHEASTERN NORTH CAROLINA

CITY           SKY/WX    TMP DP  RH WIND       PRES   REMARKS
ROCKY MT-WILSO CLEAR     76  76 100 S3        30.04R
GREENVILLE     PTCLDY    77  77 100 SW7       30.06R
WASHINGTON     CLEAR     77  75  93 SW5       30.04R
ELIZABETH CITY PTCLDY    78  76  93 SW9       30.03R
MANTEO           N/A     79  79 100 W9        30.03R
CAPE HATTERAS  CLEAR     81  77  88 SW9       30.04S
$$

NCZ078-087-090-091-093-098-101-251000-
SOUTHEASTERN NORTH CAROLINA

CITY           SKY/WX    TMP DP  RH WIND       PRES   REMARKS
LUMBERTON      CLEAR     77  75  93 S3        30.03R
GOLDSBORO      PTCLDY    79  79 100 S3        30.03R
KINSTON        CLOUDY    78  76  94 SW6       30.05R
KENANSVILLE    NOT AVBL
NEW BERN       CLEAR     77  75  93 SW5       30.06R
CHERRY POINT   CLEAR     77  74  90 CALM      30.06R
BEAUFORT       PTCLDY    82  76  81 SW8       30.05S
JACKSONVILLE   CLEAR     77  74  90 SW3       30.04S
WILMINGTON     CLEAR     78  76  93 SW3       30.05R
$$





USA.gov is the U.S. government's official web portal to all federal, state and local government web resources and services.